This is the latest recevied weather packets stored in our database for station/object OE3MNS-12. If no packets are shown the sender has not sent any weather packets the latest 10 day(s).
| Time | Temp. | Humidity | Pressure | Rain* | Wind** | Luminosity | Snow |
|---|---|---|---|---|---|---|---|
| 1778292024 | 9.44° C | 81% | 1019.1 hPa | 1.02 mm | - | 0 W/m² | - |
| 1778291421 | 10° C | 81% | 1018.9 hPa | 1.02 mm | - | 0 W/m² | - |
| 1778291117 | 10° C | 79% | 1018.9 hPa | 1.02 mm | - | 0 W/m² | - |
| 1778290519 | 10° C | 81% | 1018.9 hPa | 1.02 mm | - | 0 W/m² | - |
| 1778289920 | 10.56° C | 80% | 1018.9 hPa | 1.02 mm | - | 0 W/m² | - |
| 1778289317 | 10.56° C | 80% | 1018.9 hPa | 1.02 mm | - | 0 W/m² | - |
| 1778288719 | 10.56° C | 81% | 1018.8 hPa | 1.02 mm | - | 0 W/m² | - |
| 1778288419 | 10.56° C | 80% | 1018.8 hPa | 1.02 mm | - | 0 W/m² | - |
| 1778287821 | 10.56° C | 79% | 1018.6 hPa | 1.02 mm | - | 0 W/m² | - |
| 1778287517 | 10.56° C | 78% | 1018.6 hPa | 1.02 mm | - | 0 W/m² | - |
| 1778286919 | 11.11° C | 75% | 1018.8 hPa | 1.02 mm | - | 0 W/m² | - |
| 1778286321 | 11.11° C | 74% | 1018.8 hPa | 1.02 mm | - | 0 W/m² | - |
| 1778285717 | 11.67° C | 74% | 1018.7 hPa | 1.02 mm | - | 0 W/m² | - |
| 1778285119 | 11.67° C | 73% | 1018.7 hPa | 1.02 mm | - | 0 W/m² | - |
| 1778284521 | 11.67° C | 72% | 1018.8 hPa | 1.02 mm | - | 0 W/m² | - |
| 1778283917 | 12.22° C | 72% | 1018.7 hPa | 1.02 mm | - | 0 W/m² | - |
| 1778283319 | 12.22° C | 72% | 1018.8 hPa | 1.02 mm | - | 0 W/m² | - |
| 1778282721 | 12.78° C | 71% | 1018.7 hPa | 1.02 mm | - | 0 W/m² | - |
| 1778282118 | 12.78° C | 70% | 1018.7 hPa | 1.02 mm | - | 0 W/m² | - |
| 1778281519 | 12.78° C | 69% | 1018.7 hPa | 1.02 mm | - | 0 W/m² | - |
| 1778280921 | 13.33° C | 69% | 1018.6 hPa | - | - | - | - |
| 1778280617 | 13.33° C | 69% | 1018.7 hPa | - | - | - | - |
| 1778280018 | 13.33° C | 69% | 1018.6 hPa | - | - | - | - |
| 1778279420 | 13.33° C | 69% | 1018.6 hPa | - | - | - | - |
| 1778278817 | 13.33° C | 68% | 1018.6 hPa | - | - | - | - |
* Rain latest hour (hover to see other rain measurements)
** Current wind speed in m/s (hover to see current wind gust speed)